Weather in Southeast Greensboro

United States     35°56′31″N   79°41′07″W
temp.,
°C
wind,
m/s
gust,
m/s
humid.,
%
clouds,
%
prec.,
mm/h
press.,
hPa
HPBL,
m
6 may, thu
thu623:00+16nnw512710 0.0 1016747
02:00+13n497581 0.0 1017814
05:00+10nnw310767 0.0 1018407
08:00+11nne36675 0.0 1019300
11:00+16ne224614 0.0 10191367
14:00+20ssw24351 0.0 10161943
17:00+20wsw4435100 0.0 10142183
20:00+15ssw225858 0.0 101313
7 may, fri
fri723:00+12se129317 2.4 101361
02:00+10wsw1294100 2.8 101214
05:00+9wnw1195100 0.4 101012
08:00+11nw499298 0.4 1010368
11:00+15nw81053100 0.0 10111398
14:00+18nw8103212 0.0 10102747
17:00+17nnw712305 0.0 10112560
20:00+14nw511390 0.0 1013598
8 may, sat
sat823:00+10wnw36575 0.0 1015148
02:00+9w411660 0.0 1014358
05:00+8w411760 0.0 1015323
08:00+11w51064100 0.0 10171115
11:00+16wnw693872 0.0 10172194
14:00+19wnw59255 0.0 10162683
17:00+20wnw47234 0.0 10152935
20:00+13nnw22471 0.0 101710
9 may, sun
sun923:00+9nne22516 0.0 101911
02:00+9n2448100 0.0 102064
05:00+11nne234791 0.0 102091
08:00+11se135238 0.0 1021144
11:00+19ssw474097 0.0 1019895
14:00+23sw611445 0.0 10151607
17:00+26sw61441100 0.0 10132341
20:00+21ssw51455100 0.0 1013640
10 may, mon
mon1023:00+20ssw5155887 0.0 1013713
02:00+17ssw6178188 0.2 1012699
05:00+16sw6189497 0.1 1012678
08:00+18ssw71887100 0.1 1011778
11:00+22sw71473100 0.0 10111021
14:00+24sw81762100 0.2 10101831
17:00+23sw61164100 0.3 10101315
20:00+20sw38800 0.3 1011252